Location: Boone Canyon
(38.3180°N, 119.2504°W)
Time: 17:35:47
(UTC+00:00)

CZ-4C R/B - Pass Details

Date: 18 September 2020
Orbit: 407 x 492 km, 97.7° (Epoch: 19 October)

Event Time Altitude Azimuth Distance (km) Brightness Sun altitude
Exits shadow 12:06:04 39° 312° (NW) 755 3.7 -19.2°
Drops below altitude 10° 12:08:37 10° 338° (NNW) 1,681 5.7 -18.8°
Sets 12:10:43 0° 343° (NNW) 2,558 6.7 -18.4°
